Regional Weather Roundup
Issued by NWS

Home | Current Version | Previous Version | Text Only | Print | Product List | Glossary Off
Versions: 1 2 3 4 5 6 7 8 9 10 11 12 13 14 15 16 17 18 19 20 21 22 23 24 25 26 27 28 29 30 31 32 33 34 35 36 37 38 39 40 41 42 43 44 45 46 47 48 49 50

000
ASUS43 KFSD 190202
RWRSD

WEATHER ROUNDUP FOR SOUTH DAKOTA
NATIONAL WEATHER SERVICE SIOUX FALLS SD
800 PM CST SUN FEB 18 2018

NOTE: "FAIR" INDICATES FEW OR NO CLOUDS BELOW 12,000 FEET WITH NO
SIGNIFICANT WEATHER AND/OR OBSTRUCTIONS TO VISIBILITY.


SDZ001>005-009-010-012>017-190300-
NORTHWEST AND NORTH CENTRAL SOUTH DAKOTA

CITY           SKY/WX    TMP DP  RH WIND       PRES   REMARKS
BUFFALO          N/A      8   2  76 N15       29.86R WCI  -9
FAITH            N/A      6   5  95 N18       29.93R WCI -13
MOBRIDGE       LGT SNOW  12   5  73 N25       29.91R WCI  -8
$$

SDZ012>016-024>037-041>051-057-063-072>074-190300-
SOUTHWEST AND SOUTH CENTRAL SOUTH DAKOTA

CITY           SKY/WX    TMP DP  RH WIND       PRES   REMARKS
RAPID CTY ARPT LGT SNOW   7   4  87 N17       29.88S VSB 3/4 WCI -12
PIERRE         LGT SNOW  15  11  83 N22       29.89R FOG     WCI  -3
CUSTER         LGT SNOW   7   3  84 NE9       29.64F VSB 1   WCI  -7
ELLSWORTH AFB  BLWGSNOW   8   6  90 N17       29.87  VSB 1   WCI -10
PHILIP         FLURRIES  12   8  84 N21G31    29.92R WCI  -7
PINE RIDGE     LGT SNOW  11   6  81 N18G25    29.84R WCI  -7
SPEARFISH      LGT SNOW   5   1  85 MISG      29.87R
WINNER         CLOUDY    21  16  81 N21G26    29.85R WCI   5
$$

SDZ004>011-016>023-039-040-190300-
NORTHEAST SOUTH DAKOTA

CITY           SKY/WX    TMP DP  RH WIND       PRES   REMARKS
ABERDEEN       CLOUDY    13   6  74 N29G36    29.87S WCI  -8
WATERTOWN      CLOUDY    15  12  88 N25G32    29.70F WCI  -4
BROOKINGS      CLOUDY    21  17  84 N20G25    29.72R WCI   6
SISSETON         N/A     13   9  84 N24       29.86R WCI  -7
$$

SDZ017-020-022-023-036>040-048>070-190300-
SOUTHEAST SOUTH DAKOTA

CITY           SKY/WX    TMP DP  RH WIND       PRES   REMARKS
SIOUX FALLS    MOCLDY    30  24  78 N15       29.68R WCI  19
HURON          CLOUDY    18  13  80 N17G28    29.83R WCI   3
CHAMBERLAIN    LGT SNOW  21  17  87 NW9       29.86R WCI  10
MITCHELL       CLOUDY    22  17  81 N18       29.80R WCI   7
YANKTON        PTCLDY    28  24  85 NW22G29   29.70R WCI  14
$$

ABBREVIATIONS USED IN REMARKS
   TC - TEMPERATURE IN CELSIUS
  WCI - WIND CHILL INDEX
   HX - HEAT INDEX
  VSB - VISIBILITY




USA.gov is the U.S. government's official web portal to all federal, state and local government web resources and services.